KE3HG-2 Weather Reports


time (UTC)temp
F
wind
direction
speed
knots
gust
knots
rain 1hr
in
rain 24hr
in
rain mn
in
humidity
%
barometer
mb
20260505153021 79 218 1.7 3.5 0.00 0.00 0.00 33 757.5
20260505152021 78 218 3.5 6.1 0.00 0.00 0.00 31 757.5
20260505150403 77 210 1.7 5.2 0.00 0.00 0.00 32 757.5
20260505123817 68 179 0.9 1.7 0.00 0.00 0.00 44 757.5
20260505122817 67 179 0.9 3.5 0.00 0.00 0.00 45 757.5
20260505121817 66 41 0.9 1.7 0.00 0.00 0.00 46 757.5
20260505120148 64 41 0.9 2.6 0.00 0.00 0.00 50 757.5
20260505115148 62 0 0.0 2.6 0.00 0.00 0.00 52 757.5
20260505114149 60 0 0.0 1.7 0.00 0.00 0.00 55 757.5
20260505112525 58 56 0.9 3.5 0.00 0.00 0.00 58 757.5
20260505111525 57 0 0.0 0.0 0.00 0.00 0.00 59 757.5
20260505110525 56 0 0.0 0.0 0.00 0.00 0.00 60 757.5
20260505101234 56 0 0.0 1.7 0.00 0.00 0.00 60 757.5
20260505100233 57 0 0.0 0.0 0.00 0.00 0.00 59 757.5
20260505095233 57 0 0.0 1.7 0.00 0.00 0.00 58 757.5
20260505093608 57 0 0.0 1.7 0.00 0.00 0.00 58 757.5
20260505092609 57 39 0.9 1.7 0.00 0.00 0.00 58 757.5
20260505091609 57 0 0.0 1.7 0.00 0.00 0.00 57 757.5
20260505085955 58 0 0.0 0.0 0.00 0.00 0.00 55 757.5
20260505084955 59 0 0.0 0.0 0.00 0.00 0.00 54 757.5
20260505083956 60 0 0.0 0.0 0.00 0.00 0.00 54 757.5
20260505082408 60 0 0.0 0.0 0.00 0.00 0.00 53 757.5
20260505081408 60 0 0.0 0.0 0.00 0.00 0.00 52 757.5
20260505080409 61 0 0.0 0.0 0.00 0.00 0.00 52 757.5
20260505074752 61 0 0.0 0.0 0.00 0.00 0.00 51 757.5
20260505073752 61 0 0.0 0.0 0.00 0.00 0.00 51 757.5
20260505072751 61 0 0.0 0.0 0.00 0.00 0.00 50 757.5
20260505071139 61 0 0.0 0.9 0.00 0.00 0.00 50 757.5
20260505070139 62 160 0.9 1.7 0.00 0.00 0.00 49 757.5
20260505065139 62 50 0.9 3.5 0.00 0.00 0.00 49 757.5
20260505063536 62 0 0.0 0.0 0.00 0.00 0.00 48 757.5
20260505062536 62 3 0.9 2.6 0.00 0.00 0.00 48 757.5
20260505061536 62 213 1.7 2.6 0.00 0.00 0.00 47 757.5
20260505055931 62 224 1.7 4.3 0.00 0.00 0.00 46 757.5
20260505054931 62 212 2.6 6.1 0.00 0.00 0.00 46 757.5
20260505053931 62 216 2.6 5.2 0.00 0.00 0.00 45 757.5
20260505052326 63 206 2.6 5.2 0.00 0.00 0.00 44 757.5
20260505051327 63 218 2.6 5.2 0.00 0.00 0.00 44 757.5
20260505050326 63 210 3.5 5.2 0.00 0.00 0.00 43 757.5
20260505041141 63 216 2.6 4.3 0.00 0.00 0.00 39 757.5
20260505040141 63 207 2.6 4.3 0.00 0.00 0.00 39 757.5
20260505035140 63 190 1.7 4.3 0.00 0.00 0.00 39 757.5
20260505033546 63 206 1.7 3.5 0.00 0.00 0.00 38 757.5
20260505032546 63 204 1.7 2.6 0.00 0.00 0.00 38 757.5
20260505031546 63 204 1.7 2.6 0.00 0.00 0.00 38 757.5
20260505030001 63 204 1.7 3.5 0.00 0.00 0.00 37 757.5
20260505025001 64 208 1.7 3.5 0.00 0.00 0.00 37 757.5
20260505024000 64 211 1.7 2.6 0.00 0.00 0.00 36 757.5
20260505022416 64 211 1.7 2.6 0.00 0.00 0.00 36 757.5
20260505021416 64 199 1.7 3.5 0.00 0.00 0.00 36 757.5
20260505020415 64 206 1.7 3.5 0.00 0.00 0.00 36 757.5
20260505014827 64 210 1.7 3.5 0.00 0.00 0.00 36 757.5
20260505013827 65 210 1.7 2.6 0.00 0.00 0.00 35 757.5
20260505012826 65 214 0.9 2.6 0.00 0.00 0.00 35 757.5
20260505011258 65 214 0.9 2.6 0.00 0.00 0.00 35 757.5
20260505010258 65 214 0.9 2.6 0.00 0.00 0.00 34 757.5
20260505005258 65 214 1.7 2.6 0.00 0.00 0.00 34 757.5
20260505003719 66 214 0.9 2.6 0.00 0.00 0.00 33 757.5
20260505002719 67 213 0.9 2.6 0.00 0.00 0.00 32 757.5
20260505001719 67 214 0.9 2.6 0.00 0.00 0.00 31 757.5
20260505000142 68 207 1.7 2.6 0.00 0.00 0.00 31 757.5
20260504235142 68 205 1.7 3.5 0.00 0.00 0.00 30 757.5
20260504234142 69 216 2.6 5.2 0.00 0.00 0.00 29 757.5
20260504232625 69 202 1.7 4.3 0.00 0.00 0.00 29 757.5
20260504231626 70 219 1.7 3.5 0.00 0.00 0.00 28 757.5
20260504230625 70 216 2.6 6.1 0.00 0.00 0.00 27 757.5
20260504225020 71 205 1.7 6.1 0.00 0.00 0.00 27 757.5
20260504224020 71 193 1.7 3.5 0.00 0.00 0.00 27 757.5
20260504223021 71 208 2.6 3.5 0.00 0.00 0.00 27 757.5
20260504221435 72 207 0.9 2.6 0.00 0.00 0.00 28 757.5
20260504220436 72 202 2.6 5.2 0.00 0.00 0.00 28 757.5
20260504215436 72 214 1.7 4.3 0.00 0.00 0.00 26 757.5
20260504213844 72 210 1.7 6.1 0.00 0.00 0.00 27 757.5
20260504212845 72 199 1.7 4.3 0.00 0.00 0.00 28 757.5
20260504211845 72 207 1.7 4.3 0.00 0.00 0.00 28 757.5
20260504210243 73 223 2.6 4.3 0.00 0.00 0.00 26 757.5
20260504205243 74 221 2.6 5.2 0.00 0.00 0.00 25 757.5
20260504204244 74 208 2.6 6.1 0.00 0.00 0.00 25 757.5
20260504202643 74 205 0.9 4.3 0.00 0.00 0.00 26 757.5
20260504201642 73 207 0.9 5.2 0.00 0.00 0.00 24 757.5
20260504200642 73 211 2.6 5.2 0.00 0.00 0.00 25 757.5
20260504195030 73 230 3.5 6.1 0.00 0.00 0.00 24 757.5
20260504194030 72 198 1.7 5.2 0.00 0.00 0.00 26 757.5
20260504193030 72 221 5.2 9.6 0.00 0.00 0.00 23 757.5
20260504191411 73 231 3.5 7.8 0.00 0.00 0.00 23 757.5
20260504190411 73 248 0.9 7.0 0.00 0.00 0.00 23 757.5
20260504185411 73 211 2.6 5.2 0.00 0.00 0.00 24 757.5
20260504183744 73 207 1.7 4.3 0.00 0.00 0.00 23 757.5
20260504182744 72 232 3.5 6.1 0.00 0.00 0.00 24 757.5
20260504181744 72 222 2.6 8.7 0.00 0.00 0.00 23 757.5
20260504180113 72 202 2.6 6.1 0.00 0.00 0.00 25 757.5
20260504175114 72 219 1.7 5.2 0.00 0.00 0.00 24 757.5
20260504174113 71 210 2.6 4.3 0.00 0.00 0.00 26 757.5
20260504172458 71 217 3.5 6.1 0.00 0.00 0.00 25 757.5
20260504171458 71 220 2.6 6.1 0.00 0.00 0.00 25 757.5
20260504170458 70 192 2.6 4.3 0.00 0.00 0.00 25 757.5
20260504160145 68 222 3.5 5.2 0.00 0.00 0.00 27 757.5